Starlink 6140

operational
NORAD ID: 57111 Int'l Des: 2023-090 Owner: SPXS Country: US Constellation: starlink
LEOCIRCULAR

About Starlink 6140

Description loading...

Live Position

Loading 3D Globe...

Upcoming Passes

Altitude History

Altitude vs Time

uPlot chart will show altitude changes over time

Two-Line Element Set

1 57111U 23090L 25351.05679196 .00000096 00000-0 22152-4 0 9999
2 57111 43.0053 3.6237 0001285 267.3576 92.7119 15.02540185137983
Epoch: Dec 17, 2025 • Age: 13 hours

Current Status

Altitude 559.0 km
Velocity 7.59 km/s
Sub-Earth Point 21.38°N, 84.87°E
Launch Date Jun 23, 2023
Age 2.4 years
Type internet

Technical Details

Classification Payload
Mass 305.00 kg
Dry Mass 290.00 kg
Total Mass 305.00 kg
Length 0.20 m
Diameter 2.80 m
Span 9.00 m
Shape Box + pan
Manufacturer SPXS
Bus Type Starlink
Phase Status In Orbit
Owner/State SPXS/US

Large Constellations

Loading constellations...